EW2875 Weather Reports


Display with metric or nautical units.
time (UTC)temp
F
wind
direction
speed
MPH
gust
MPH
rain 1hr
in
rain 24hr
in
rain mn
in
humidity
%
barometer
mb
20260509211504 34 97 1.0 2.0 0.00 0.00 0.00 91 1024.2
20260509210004 34 46 0.0 1.0 0.00 0.00 0.00 90 1024.0
20260509204504 35 46 0.0 2.0 0.00 0.00 0.00 88 1024.1
20260509203004 36 0 0.0 0.0 0.00 0.00 0.00 85 1024.0
20260509201504 39 0 0.0 0.0 0.00 0.00 0.00 79 1024.0
20260509200005 42 47 2.0 3.0 0.00 0.00 0.00 76 1024.0
20260509194504 43 48 3.0 5.0 0.00 0.00 0.00 76 1023.8
20260509193004 43 47 2.0 4.0 0.00 0.00 0.00 75 1023.7
20260509191504 43 39 5.0 7.0 0.00 0.00 0.00 74 1023.7
20260509190005 44 29 4.0 8.0 0.00 0.00 0.00 74 1023.6
20260509184504 45 25 4.0 8.0 0.00 0.00 0.00 71 1023.6
20260509183004 47 32 6.0 9.0 0.00 0.00 0.00 67 1023.3
20260509181504 48 34 5.0 9.0 0.00 0.00 0.00 65 1023.3
20260509180004 50 15 5.0 9.0 0.00 0.00 0.00 65 1023.3
20260509174504 50 16 6.0 11.0 0.00 0.00 0.00 63 1023.2
20260509173004 51 18 6.0 11.0 0.00 0.00 0.00 66 1023.3
20260509171504 50 25 7.0 12.0 0.00 0.00 0.00 64 1023.5
20260509170004 51 29 6.0 11.0 0.00 0.00 0.00 67 1023.4
20260509164504 50 19 8.0 12.0 0.00 0.00 0.00 69 1023.5
20260509163004 50 7 6.0 12.0 0.00 0.00 0.00 61 1023.4
20260509161525 51 21 9.0 13.0 0.00 0.00 0.00 68 1023.3
20260509160004 51 10 7.0 12.0 0.00 0.00 0.00 68 1023.2
20260509154504 49 20 6.0 11.0 0.00 0.00 0.00 61 1023.2
20260509153004 51 28 8.0 13.0 0.00 0.00 0.00 69 1023.2
20260509151504 52 30 8.0 15.0 0.00 0.00 0.00 68 1023.2
20260509150004 51 20 6.0 12.0 0.00 0.00 0.00 69 1023.2
20260509144525 51 360 8.0 13.0 0.00 0.00 0.00 68 1023.4
20260509143025 50 351 11.0 15.0 0.00 0.00 0.00 66 1023.6
20260509141525 48 348 12.0 20.0 0.00 0.00 0.00 68 1023.6
20260509140005 50 346 12.0 20.0 0.00 0.00 0.00 65 1023.5
20260509134504 49 334 11.0 18.0 0.00 0.00 0.00 63 1023.4
20260509133004 49 323 9.0 15.0 0.00 0.00 0.00 62 1023.4
20260509131504 49 324 9.0 16.0 0.00 0.00 0.00 63 1023.5
20260509130004 50 351 8.0 15.0 0.00 0.00 0.00 65 1023.5
20260509124504 50 352 10.0 15.0 0.00 0.00 0.00 66 1023.6
20260509123004 50 352 11.0 19.0 0.00 0.00 0.00 62 1023.6
20260509121504 50 341 13.0 19.0 0.00 0.00 0.00 62 1023.6
20260509120004 49 329 10.0 16.0 0.00 0.00 0.00 62 1023.5
20260509114504 48 332 8.0 16.0 0.00 0.00 0.00 67 1023.6
20260509113004 48 332 7.0 16.0 0.00 0.00 0.00 70 1023.7
20260509111504 48 341 11.0 16.0 0.00 0.00 0.00 69 1023.7
20260509110004 48 332 10.0 16.0 0.00 0.00 0.00 70 1023.9
20260509104504 48 336 11.0 18.0 0.00 0.00 0.00 74 1023.7
20260509103004 48 341 14.0 22.0 0.00 0.00 0.00 77 1023.6
20260509101504 47 334 12.0 19.0 0.00 0.00 0.00 75 1023.5
20260509100005 47 322 13.0 20.0 0.00 0.00 0.00 74 1023.5
20260509094504 47 327 12.0 18.0 0.00 0.00 0.00 72 1023.3
20260509093004 47 341 12.0 18.0 0.00 0.00 0.00 70 1023.2
20260509091504 46 328 11.0 18.0 0.00 0.00 0.00 77 1023.1
20260509090004 46 322 12.0 18.0 0.00 0.00 0.00 78 1023.1
20260509084504 46 326 12.0 19.0 0.00 0.00 0.00 77 1023.1
20260509083004 46 321 12.0 20.0 0.00 0.00 0.00 81 1023.1
20260509081504 45 315 10.0 16.0 0.00 0.00 0.00 84 1022.8
20260509080004 44 318 9.0 15.0 0.00 0.00 0.00 83 1022.9
20260509074504 44 317 11.0 18.0 0.00 0.00 0.00 83 1022.9
20260509073004 43 294 8.0 12.0 0.00 0.00 0.00 87 1022.8
20260509071504 43 288 8.0 18.0 0.00 0.00 0.00 88 1022.7
20260509070004 44 299 11.0 16.0 0.00 0.00 0.00 86 1022.5
20260509064504 43 294 9.0 15.0 0.00 0.00 0.00 88 1022.4
20260509063025 42 292 10.0 15.0 0.00 0.00 0.00 89 1022.5
20260509061504 43 290 6.0 15.0 0.00 0.00 0.00 91 1022.2
20260509060025 42 271 2.0 8.0 0.00 0.00 0.00 93 1022.1
20260509054504 40 261 2.0 5.0 0.00 0.00 0.00 94 1022.0
20260509053025 39 260 2.0 5.0 0.00 0.00 0.00 94 1021.9
20260509051504 39 257 4.0 8.0 0.00 0.00 0.00 94 1021.8
20260509050004 38 257 5.0 9.0 0.00 0.00 0.00 94 1021.7
20260509044504 38 260 2.0 7.0 0.00 0.00 0.00 93 1021.7
20260509043004 39 255 2.0 9.0 0.00 0.00 0.00 93 1021.6
20260509041504 39 253 7.0 10.0 0.00 0.00 0.00 94 1021.6
20260509040004 38 262 2.0 5.0 0.00 0.00 0.00 92 1021.5
20260509034504 39 263 2.0 4.0 0.00 0.00 0.00 92 1021.4
20260509033004 39 259 1.0 7.0 0.00 0.00 0.00 92 1021.3
20260509031504 40 266 2.0 5.0 0.00 0.00 0.00 90 1021.3
20260509030004 40 267 1.0 8.0 0.00 0.00 0.00 90 1021.4
20260509024504 41 267 2.0 7.0 0.00 0.00 0.00 89 1021.4
20260509023004 41 265 1.0 5.0 0.00 0.00 0.00 89 1021.5
20260509021504 41 257 1.0 5.0 0.00 0.00 0.00 89 1021.3
20260509020025 41 257 5.0 8.0 0.00 0.00 0.00 89 1021.3
20260509014504 41 267 2.0 5.0 0.00 0.00 0.00 87 1021.3
20260509013004 42 266 2.0 5.0 0.00 0.00 0.00 85 1021.1
20260509011504 43 289 3.0 11.0 0.00 0.00 0.00 83 1021.0
20260509010025 44 294 9.0 13.0 0.00 0.00 0.00 82 1020.9
20260509004525 44 292 9.0 13.0 0.00 0.00 0.00 81 1020.8
20260509003004 44 290 8.0 13.0 0.00 0.00 0.00 81 1020.7
20260509001504 44 296 5.0 12.0 0.00 0.00 0.00 80 1020.6
20260509000004 44 304 5.0 8.0 0.00 0.00 0.00 79 1020.5
20260508234504 44 307 5.0 9.0 0.00 0.00 0.00 78 1020.4
20260508233004 44 307 4.0 7.0 0.00 0.00 0.00 77 1020.4
20260508231503 45 315 5.0 9.0 0.00 0.00 0.00 77 1020.3
20260508230004 45 310 5.0 10.0 0.00 0.00 0.00 76 1020.2
20260508224504 45 305 7.0 11.0 0.00 0.00 0.00 76 1020.0
20260508223004 46 298 10.0 13.0 0.00 0.00 0.00 76 1019.9
20260508221504 46 297 9.0 13.0 0.00 0.00 0.00 76 1019.8
20260508220025 46 301 9.0 13.0 0.00 0.00 0.00 76 1019.7
20260508214503 46 308 9.0 13.0 0.00 0.00 0.00 75 1019.6
20260508213024 47 310 8.0 14.0 0.00 0.00 0.00 76 1019.5